Weather reports worldwide

Advertisment
Riga, Latvia (26422): temperature & dewpoint: 11.10.2017 17:00:00 - 17.10.2017 17:00:00 (EEST)Riga, Latvia (26422): wind speed: 11.10.2017 17:00:00 - 17.10.2017 17:00:00 (EEST)Riga, Latvia (26422): wind direction: 11.10.2017 17:00:00 - 17.10.2017 17:00:00 (EEST)Riga, Latvia (26422): reduced air pressure: 11.10.2017 17:00:00 - 17.10.2017 17:00:00 (EEST)Riga, Latvia (26422): visibility: 11.10.2017 17:00:00 - 17.10.2017 17:00:00 (EEST)
Date & Time tt [°C] td [°C] ff [km/h] ff [kn] dd ppp [hPa] vv [km]
17.10.2017 17:00:00 - - - - - - -
17.10.2017 16:00:00 - - - - - - -
17.10.2017 15:00:00 14,4 11,7 25 14 S 1014,3 10
17.10.2017 14:00:00 - - - - - - -
17.10.2017 13:00:00 - - - - - - -
17.10.2017 12:00:00 12,0 11,5 14 8 S 1017,9 4,0
17.10.2017 11:00:00 - - - - - - -
17.10.2017 10:00:00 - - - - - - -
17.10.2017 09:00:00 10,2 10,2 7 4 SSW 1019,1 0,5
17.10.2017 08:00:00 - - - - - - -
17.10.2017 07:00:00 - - - - - - -
17.10.2017 06:00:00 9,5 9,3 7 4 S 1018,0 0,5
17.10.2017 05:00:00 - - - - - - -
17.10.2017 04:00:00 - - - - - - -
17.10.2017 03:00:00 10,3 9,8 4 2 WSW 1017,4 4,0
17.10.2017 02:00:00 - - - - - - -
17.10.2017 01:00:00 - - - - - - -
17.10.2017 00:00:00 12,0 10,8 7 4 W 1016,4 10
16.10.2017 23:00:00 - - - - - - -
16.10.2017 22:00:00 - - - - - - -
16.10.2017 21:00:00 13,7 11,8 14 8 WSW 1014,8 10
16.10.2017 20:00:00 - - - - - - -
16.10.2017 19:00:00 - - - - - - -
16.10.2017 18:00:00 14,6 11,9 11 6 WSW 1013,7 10
16.10.2017 17:00:00 - - - - - - -
16.10.2017 16:00:00 - - - - - - -
16.10.2017 15:00:00 15,9 12,8 11 6 WSW 1013,0 10
16.10.2017 14:00:00 - - - - - - -
16.10.2017 13:00:00 - - - - - - -
16.10.2017 12:00:00 14,0 12,8 18 10 S 1013,8 4,0
16.10.2017 11:00:00 - - - - - - -
16.10.2017 10:00:00 - - - - - - -
16.10.2017 09:00:00 11,4 10,9 14 8 S 1015,7 4,0
16.10.2017 08:00:00 - - - - - - -
16.10.2017 07:00:00 - - - - - - -
16.10.2017 06:00:00 9,9 9,4 14 8 S 1017,8 4,0
16.10.2017 05:00:00 - - - - - - -
16.10.2017 04:00:00 - - - - - - -
16.10.2017 03:00:00 9,1 8,3 7 4 S 1019,6 10
16.10.2017 02:00:00 - - - - - - -
16.10.2017 01:00:00 - - - - - - -
16.10.2017 00:00:00 9,7 8,4 7 4 SW 1020,4 10
15.10.2017 23:00:00 - - - - - - -
15.10.2017 22:00:00 - - - - - - -
15.10.2017 21:00:00 9,3 8,3 11 6 W 1020,3 10
15.10.2017 20:00:00 - - - - - - -
15.10.2017 19:00:00 - - - - - - -
15.10.2017 18:00:00 11,3 9,6 7 4 NW 1019,1 10
15.10.2017 17:00:00 - - - - - - -
15.10.2017 16:00:00 - - - - - - -
15.10.2017 15:00:00 13,2 9,9 11 6 WNW 1017,7 10
15.10.2017 14:00:00 - - - - - - -
15.10.2017 13:00:00 - - - - - - -
15.10.2017 12:00:00 12,5 10,0 18 10 WNW 1016,1 10
15.10.2017 11:00:00 - - - - - - -
15.10.2017 10:00:00 - - - - - - -
15.10.2017 09:00:00 11,7 10,0 14 8 W 1013,3 10
15.10.2017 08:00:00 - - - - - - -
15.10.2017 07:00:00 - - - - - - -
15.10.2017 06:00:00 11,8 10,5 18 10 W 1011,6 10
15.10.2017 05:00:00 - - - - - - -
15.10.2017 04:00:00 - - - - - - -
15.10.2017 03:00:00 11,6 10,4 14 8 WSW 1010,9 10
15.10.2017 02:00:00 - - - - - - -
15.10.2017 01:00:00 - - - - - - -
15.10.2017 00:00:00 12,2 11,4 14 8 W 1010,9 10
14.10.2017 23:00:00 - - - - - - -
14.10.2017 22:00:00 - - - - - - -
14.10.2017 21:00:00 12,2 12,0 11 6 WSW 1009,7 4,0
14.10.2017 20:00:00 - - - - - - -
14.10.2017 19:00:00 - - - - - - -
14.10.2017 18:00:00 9,5 9,1 7 4 SSE 1010,3 2,0
14.10.2017 17:00:00 - - - - - - -
14.10.2017 16:00:00 - - - - - - -
14.10.2017 15:00:00 8,7 8,0 14 8 SSE 1012,2 10
14.10.2017 14:00:00 - - - - - - -
14.10.2017 13:00:00 - - - - - - -
14.10.2017 12:00:00 8,2 7,7 11 6 SSE 1015,1 10
14.10.2017 11:00:00 - - - - - - -
14.10.2017 10:00:00 - - - - - - -
14.10.2017 09:00:00 7,5 6,5 7 4 S 1016,1 10
14.10.2017 08:00:00 - - - - - - -
14.10.2017 07:00:00 - - - - - - -
14.10.2017 06:00:00 8,6 5,5 7 4 WSW 1017,0 10
14.10.2017 05:00:00 - - - - - - -
14.10.2017 04:00:00 - - - - - - -
14.10.2017 03:00:00 9,3 4,0 11 6 WNW 1016,9 10
14.10.2017 02:00:00 - - - - - - -
14.10.2017 01:00:00 - - - - - - -
14.10.2017 00:00:00 9,7 5,8 14 8 WNW 1015,7 10
13.10.2017 23:00:00 - - - - - - -
13.10.2017 22:00:00 - - - - - - -
13.10.2017 21:00:00 9,6 4,7 14 8 NNW 1013,8 10
13.10.2017 20:00:00 - - - - - - -
13.10.2017 19:00:00 - - - - - - -
13.10.2017 18:00:00 10,2 7,9 25 14 NNW 1010,7 10
13.10.2017 17:00:00 - - - - - - -
13.10.2017 16:00:00 - - - - - - -
13.10.2017 15:00:00 11,7 10,9 18 10 NW 1006,1 20
13.10.2017 14:00:00 - - - - - - -
13.10.2017 13:00:00 - - - - - - -
13.10.2017 12:00:00 10,8 10,4 11 6 W 1002,2 2,0
13.10.2017 11:00:00 - - - - - - -
13.10.2017 10:00:00 - - - - - - -
13.10.2017 09:00:00 9,2 8,4 7 4 WSW 999,9 10
13.10.2017 08:00:00 - - - - - - -
13.10.2017 07:00:00 - - - - - - -
13.10.2017 06:00:00 9,1 8,3 11 6 WSW 998,2 10
13.10.2017 05:00:00 - - - - - - -
13.10.2017 04:00:00 - - - - - - -
13.10.2017 03:00:00 9,6 9,1 11 6 SW 997,3 10
13.10.2017 02:00:00 - - - - - - -
13.10.2017 01:00:00 - - - - - - -
13.10.2017 00:00:00 10,3 9,6 14 8 S 997,1 10
12.10.2017 23:00:00 - - - - - - -
12.10.2017 22:00:00 - - - - - - -
12.10.2017 21:00:00 11,0 10,0 14 8 S 998,6 10
12.10.2017 20:00:00 - - - - - - -
12.10.2017 19:00:00 - - - - - - -
12.10.2017 18:00:00 12,0 11,2 18 10 S 999,8 4,0
12.10.2017 17:00:00 - - - - - - -
12.10.2017 16:00:00 - - - - - - -
12.10.2017 15:00:00 13,1 11,6 14 8 SSW 1001,9 4,0
12.10.2017 14:00:00 - - - - - - -
12.10.2017 13:00:00 - - - - - - -
12.10.2017 12:00:00 10,3 9,9 7 4 S 1003,4 4,0
12.10.2017 11:00:00 - - - - - - -
12.10.2017 10:00:00 - - - - - - -
12.10.2017 09:00:00 8,1 7,6 11 6 SE 1005,2 10
12.10.2017 08:00:00 - - - - - - -
12.10.2017 07:00:00 - - - - - - -
12.10.2017 06:00:00 7,9 7,1 7 4 SSE 1007,1 10
12.10.2017 05:00:00 - - - - - - -
12.10.2017 04:00:00 - - - - - - -
12.10.2017 03:00:00 8,0 7,2 7 4 SW 1008,3 10
12.10.2017 02:00:00 - - - - - - -
12.10.2017 01:00:00 - - - - - - -
12.10.2017 00:00:00 8,4 6,9 7 4 SW 1008,3 10
11.10.2017 23:00:00 - - - - - - -
11.10.2017 22:00:00 - - - - - - -
11.10.2017 21:00:00 7,5 6,1 7 4 WSW 1007,5 10
11.10.2017 20:00:00 - - - - - - -
11.10.2017 19:00:00 - - - - - - -
11.10.2017 18:00:00 9,6 7,0 14 8 WSW 1006,2 10
11.10.2017 17:00:00 - - - - - - -

tt = temperature
td = dewpoint
ff = wind speed
dd = wind direction
ppp = reduced air pressure
vv = visibility

Next stations